This demonstration page uses our WeatherBlox Daily Observations layout. Learn more.

40.92945, -100.16068

Hourly Observations for March 6, 2015

Temp ( °F °C ) Dew Point ( °F °C ) Humidity (%) Winds ( mph kmh ) Pressure ( in mb ) Visibility ( mi km ) Precip ( " mm )
12:15 am 00:15 Clear 22 -5.6 13 -10.5 69 69 NW 8 13 30.36 1028 10 16.0934 N/A
12:35 am 00:35 Clear 21 -6.1 13 -10.5 71 71 WNW 7 11 30.36 1028 10 16.0934 N/A
12:55 am 00:55 Clear 21 -6 13 -10.3 72 72 NW 9 15 30.36 1028 10 16.0934 N/A
1:15 am 01:15 Clear 21 -5.9 13 -10.5 70 70 NW 9 15 30.36 1028 10 16.0934 N/A
1:35 am 01:35 Clear 21 -6.1 13 -10.3 72 72 WNW 6 9 30.36 1028 10 16.0934 N/A
1:55 am 01:55 Clear 20 -6.8 13 -10.4 76 76 WNW 7 11 30.39 1029 10 16.0934 N/A
2:15 am 02:15 Clear 21 -6.3 14 -9.8 77 77 WNW 8 13 30.36 1028 10 16.0934 N/A
2:35 am 02:35 Clear 23 -5.1 15 -9.3 73 73 W 8 13 30.36 1028 10 16.0934 N/A
2:55 am 02:55 Clear 22 -5.5 15 -9.5 74 74 W 10 17 30.36 1028 10 16.0934 N/A
3:15 am 03:15 Clear 21 -6.2 13 -10.3 73 73 W 9 15 30.36 1028 10 16.0934 N/A
3:35 am 03:35 Clear 21 -6.2 14 -10.1 74 74 W 9 15 30.36 1028 10 16.0934 N/A
3:55 am 03:55 Clear 20 -6.8 13 -10.3 76 76 W 9 15 30.39 1029 10 16.0934 N/A
4:15 am 04:15 Clear 20 -6.5 14 -9.8 78 78 W 9 15 30.36 1028 10 16.0934 N/A
4:35 am 04:35 Clear 21 -6.1 14 -10 74 74 W 9 15 30.36 1028 10 16.0934 N/A
4:55 am 04:55 Clear 21 -6.2 14 -9.8 76 76 W 9 15 30.36 1028 10 16.0934 N/A
5:15 am 05:15 Clear 20 -6.7 14 -10.2 76 76 W 6 9 30.39 1029 10 16.0934 N/A
5:35 am 05:35 Clear 17 -8.3 12 -11.1 80 80 WNW 7 11 30.39 1029 10 16.0934 N/A
5:55 am 05:55 Clear 18 -7.6 13 -10.5 80 80 WNW 8 13 30.39 1029 10 16.0934 N/A
6:15 am 06:15 Clear 18 -8 13 -10.5 82 82 WNW 6 9 30.39 1029 10 16.0934 N/A
6:35 am 06:35 Clear 18 -7.8 13 -10.3 82 82 WNW 6 9 30.39 1029 10 16.0934 N/A
6:55 am 06:55 Clear 17 -8.1 13 -10.5 83 83 WNW 6 9 30.39 1029 10 16.0934 N/A
7:15 am 07:15 Sunny 18 -7.7 14 -9.9 84 84 WNW 8 13 30.39 1029 10 16.0934 N/A
7:35 am 07:35 Sunny 18 -8 14 -10.1 85 85 NW 7 11 30.39 1029 10 16.0934 N/A
7:55 am 07:55 Sunny 22 -5.6 18 -8 83 83 WNW 5 7 30.36 1028 10 16.0934 N/A
8:15 am 08:15 Sunny 26 -3.6 20 -6.9 78 78 WNW 7 11 30.39 1029 10 16.0934 N/A
8:35 am 08:35 Sunny 29 -1.9 21 -6 74 74 WNW 12 19 30.36 1028 10 16.0934 N/A
8:55 am 08:55 Sunny 31 -0.7 22 -5.6 70 70 W 8 13 30.36 1028 10 16.0934 N/A
9:15 am 09:15 Sunny 33 0.8 22 -5.3 64 64 W 7 11 30.33 1027 10 16.0934 N/A
9:35 am 09:35 Sunny 36 2.4 23 -4.8 59 59 WNW 7 11 30.33 1027 10 16.0934 N/A
9:55 am 09:55 Sunny 40 4.4 24 -4.5 53 53 WNW 8 13 30.3 1026 10 16.0934 N/A
10:15 am 10:15 Sunny 43 6.1 24 -4.5 47 47 W 13 20 30.27 1025 10 16.0934 N/A
10:35 am 10:35 Sunny 46 7.9 23 -5.2 39 39 W 12 19 30.27 1025 10 16.0934 N/A
10:55 am 10:55 Sunny 49 9.5 22 -5.6 34 34 W 7 11 30.24 1024 10 16.0934 N/A
11:15 am 11:15 Sunny 51 10.8 22 -5.8 31 31 WNW 8 13 30.24 1024 10 16.0934 N/A
11:35 am 11:35 Sunny 54 12.1 22 -5.8 28 28 WNW 8 13 30.21 1023 10 16.0934 N/A
11:55 am 11:55 Sunny 56 13.5 21 -6.1 25 25 WNW 13 20 30.18 1022 10 16.0934 N/A
12:15 pm 12:15 Sunny 58 14.2 20 -6.8 23 23 NW 14 22 30.18 1022 10 16.0934 N/A
12:35 pm 12:35 Sunny 58 14.7 19 -7.2 21 21 WNW 17 28 30.15 1021 10 16.0934 N/A
12:55 pm 12:55 Sunny 59 15.1 19 -7.5 20 20 WNW 15 24 30.15 1021 10 16.0934 N/A
1:15 pm 13:15 Sunny 60 15.4 18 -8 19 19 WNW 16 26 30.12 1020 10 16.0934 N/A
1:35 pm 13:35 Sunny 61 16.1 18 -7.9 19 19 WNW 17 28 30.12 1020 10 16.0934 N/A
1:55 pm 13:55 Sunny 61 16.1 17 -8.1 18 18 NW 21 33 30.12 1020 10 16.0934 N/A
2:15 pm 14:15 Sunny 61 16.2 17 -8.4 18 18 WNW 13 20 30.12 1020 10 16.0934 N/A
2:35 pm 14:35 Sunny 62 16.5 17 -8.1 18 18 WNW 18 30 30.09 1019 10 16.0934 N/A
2:55 pm 14:55 Sunny 63 17 18 -8 17 17 WNW 14 22 30.09 1019 10 16.0934 N/A
3:15 pm 15:15 Sunny 62 16.7 18 -8 18 18 WNW 17 28 30.09 1019 10 16.0934 N/A
3:35 pm 15:35 Sunny 63 17.2 18 -7.9 17 17 WNW 15 24 30.09 1019 10 16.0934 N/A
3:55 pm 15:55 Sunny 63 17.3 17 -8.2 17 17 WNW 15 24 30.09 1019 10 16.0934 N/A
4:15 pm 16:15 Sunny 63 17.2 17 -8.2 17 17 WNW 14 22 30.09 1019 10 16.0934 N/A
4:35 pm 16:35 Sunny 63 17.1 17 -8.2 17 17 W 15 24 30.09 1019 10 16.0934 N/A
4:55 pm 16:55 Sunny 63 17 17 -8.6 17 17 W 20 31 30.09 1019 10 16.0934 N/A
5:15 pm 17:15 Sunny 62 16.6 16 -8.8 17 17 WNW 16 26 30.06 1018 10 16.0934 N/A
5:35 pm 17:35 Sunny 61 16.1 17 -8.6 18 18 W 12 19 30.06 1018 10 16.0934 N/A
5:55 pm 17:55 Sunny 58 14.7 17 -8.5 19 19 W 8 13 30.06 1018 10 16.0934 N/A
6:15 pm 18:15 Sunny 55 12.9 16 -9 21 21 WSW 7 11 30.09 1019 10 16.0934 N/A
6:35 pm 18:35 Sunny 51 10.4 15 -9.3 24 24 W 8 13 30.12 1020 10 16.0934 N/A
6:55 pm 18:55 Clear 44 6.8 14 -10.2 29 29 W 7 11 30.15 1021 10 16.0934 N/A
7:15 pm 19:15 Clear 42 5.5 14 -10 32 32 W 6 9 30.18 1022 10 16.0934 N/A
7:35 pm 19:35 Clear 40 4.7 14 -10.1 34 34 W 8 13 30.18 1022 10 16.0934 N/A
7:55 pm 19:55 Clear 38 3.3 15 -9.6 39 39 W 10 17 30.21 1023 10 16.0934 N/A
8:15 pm 20:15 Clear 38 3.2 14 -10 38 38 WNW 8 13 30.21 1023 10 16.0934 N/A
8:35 pm 20:35 Clear 38 3.5 15 -9.6 38 38 WNW 6 9 30.21 1023 10 16.0934 N/A
8:55 pm 20:55 Clear 34 1.3 14 -10.1 43 43 NW 5 7 30.24 1024 10 16.0934 N/A
9:15 pm 21:15 Clear 32 0.1 14 -9.8 48 48 NW 9 15 30.24 1024 10 16.0934 N/A
9:35 pm 21:35 Clear 31 -0.3 15 -9.7 50 50 WNW 8 13 30.27 1025 10 16.0934 N/A
9:55 pm 21:55 Clear 32 -0.2 15 -9.3 51 51 WNW 6 9 30.27 1025 10 16.0934 N/A
10:15 pm 22:15 Clear 29 -1.7 14 -9.8 54 54 NW 12 19 30.3 1026 10 16.0934 N/A
10:35 pm 22:35 Clear 32 -0.2 17 -8.4 54 54 WNW 9 15 30.27 1025 10 16.0934 N/A
10:55 pm 22:55 Clear 32 -0.2 16 -8.8 53 53 WNW 9 15 30.27 1025 10 16.0934 N/A
11:15 pm 23:15 Clear 31 -0.8 16 -9 54 54 WNW 10 17 30.3 1026 10 16.0934 N/A
11:35 pm 23:35 Clear 30 -1 16 -8.9 55 55 W 7 11 30.3 1026 10 16.0934 N/A
11:55 pm 23:55 Clear 28 -2 17 -8.6 61 61 WNW 9 15 30.3 1026 10 16.0934 N/A

Powered by AerisWeather